Overview Statistics Trail Chart Weather Telemetry Raw packets
 

This is the latest recevied weather packets stored in our database for station/object KA1JKB. If no packets are shown the sender has not sent any weather packets the latest 10 day(s).

<< 10 11 12 13 14 15 16 >>
Time Temp. Humidity Pressure Rain* Wind** Luminosity Snow
1788380310 33.89° C 62% 1011.8 hPa 0 mm - 563 W/m² -
1788380010 33.33° C 63% 1011.9 hPa 0 mm - 606 W/m² -
1788379705 33.33° C 64% 1011.9 hPa 0 mm - 553 W/m² -
1788379400 33.89° C 66% 1011.9 hPa 0 mm - 555 W/m² -
1788379096 33.33° C 66% 1012 hPa 0 mm - 612 W/m² -
1788378795 32.78° C 64% 1012 hPa 0 mm - 568 W/m² -
1788378490 32.78° C 64% 1012 hPa 0 mm - 427 W/m² -
1788378184 32.78° C 65% 1012 hPa 0 mm - 429 W/m² -
1788377880 32.78° C 68% 1012.2 hPa 0 mm - 324 W/m² -
1788377576 33.33° C 64% 1012.1 hPa 0 mm - 351 W/m² -
1788377274 33.33° C 64% 1012 hPa 0 mm - 611 W/m² -
1788376974 33.89° C 63% 1012.2 hPa 0 mm - 526 W/m² -
1788376673 33.89° C 65% 1012.2 hPa 0 mm - 632 W/m² -
1788376368 33.89° C 64% 1012.3 hPa 0 mm - 640 W/m² -
1788376064 33.89° C 65% 1012.5 hPa 0 mm - 652 W/m² -
1788375763 33.33° C 65% 1012.5 hPa 0 mm - 641 W/m² -
1788375459 33.33° C 65% 1012.5 hPa 0 mm - 629 W/m² -
1788375155 32.78° C 66% 1012.3 hPa 0 mm - 603 W/m² -
1788374850 32.78° C 66% 1012.6 hPa 0 mm - 623 W/m² -
1788374546 32.78° C 64% 1012.5 hPa 0 mm - 542 W/m² -
1788374241 33.33° C 64% 1012.4 hPa 0 mm - 624 W/m² -
1788373937 33.33° C 67% 1012.4 hPa 0 mm - 699 W/m² -
1788373633 32.78° C 68% 1012.4 hPa 0 mm - 619 W/m² -
1788373330 32.78° C 71% 1012.5 hPa 0 mm - 562 W/m² -
1788373026 32.78° C 71% 1012.7 hPa 0 mm - 629 W/m² -

* Rain latest hour (hover to see other rain measurements)
** Current wind speed in m/s (hover to see current wind gust speed)